Wind_Speed
23 23 23 23 22 22 21 21 21 21 21 20 19 18 18 18 19 19 19 19 19 19 19 19 19 19 19 19 20 20 20 20 20 19 18 19 20 20 20 20 21 21 21
24 23 23 23 22 22 21 21 22 22 22 21 20 19 20 20 20 20 21 20 20 19 19 19 19 20 20 20 20 20 20 20 20 19 20 20 20 20 21 21 21 22 22
23 22 22 22 21 21 21 22 22 22 21 21 21 20 20 20 20 20 20 19 18 18 18 19 19 20 21 21 20 20 19 20 20 20 20 21 21 21 22 22 23 23 23
23 22 22 21 20 20 20 21 21 21 21 20 20 20 20 20 20 19 19 19 18 18 18 19 19 20 20 21 20 20 19 19 20 20 20 20 21 21 21 22 23 22 22
22 21 22 21 21 21 21 21 21 20 20 21 21 20 20 20 20 20 19 19 19 18 18 19 19 19 19 20 20 20 20 20 21 21 21 21 21 21 22 22 22 22 23
21 21 21 21 21 21 20 20 21 21 20 20 20 20 20 20 20 20 20 20 20 20 20 20 20 20 20 20 21 21 21 21 21 21 22 22 22 23 23 23 23 23 23
21 20 20 20 20 20 20 20 21 21 20 20 20 21 21 21 21 21 20 20 21 21 21 21 20 21 21 21 21 21 22 22 22 23 23 23 23 24 24 24 24 25 24
20 21 21 20 20 20 19 20 20 20 20 20 20 21 21 21 21 22 21 22 22 21 22 22 22 22 22 22 21 22 22 22 23 23 23 24 25 25 25 25 26 26 25
20 20 20 20 19 19 19 20 20 20 20 20 20 20 20 21 21 22 22 23 22 22 22 23 23 23 22 22 22 22 23 23 24 25 25 25 25 26 26 27 27 27 26
21 20 20 20 20 20 20 20 20 21 21 20 20 20 21 21 22 22 22 22 23 23 23 23 23 23 22 22 23 24 24 24 25 25 25 26 27 27 27 27 27 27 26
20 20 20 20 20 21 21 21 21 21 21 20 20 21 22 22 22 22 22 23 23 23 23 23 23 22 22 23 23 24 24 24 25 25 26 27 27 28 28 28 27 27 26
20 20 20 20 20 20 20 20 20 21 20 20 20 21 22 22 23 23 23 23 23 23 23 23 22 22 22 22 23 23 24 24 25 26 26 27 27 27 26 26 26 26 26
20 19 19 19 19 19 20 20 20 21 22 21 21 21 22 22 21 21 22 23 23 23 23 24 24 23 23 23 23 23 23 24 25 25 26 26 26 26 26 26 26 26 25
20 20 19 19 19 18 19 19 20 21 21 21 21 21 22 22 22 23 23 24 24 24 25 25 24 24 23 23 24 24 25 25 25 25 26 26 26 26 27 27 26 26 26
19 20 20 20 19 19 18 19 19 19 20 21 21 21 22 23 23 24 24 25 25 25 25 25 25 24 24 24 25 25 25 26 26 26 27 27 27 27 27 27 26 26 26
20 20 20 19 19 19 19 19 19 20 20 20 20 21 22 23 23 24 24 25 25 25 24 25 25 25 24 24 25 25 25 25 26 26 27 27 27 27 26 26 26 27 26
19 19 19 19 19 19 20 20 20 20 20 21 21 21 22 23 23 24 24 24 24 24 24 25 24 24 23 23 23 24 24 25 26 26 26 26 27 27 26 26 26 26 26
18 18 18 19 20 20 21 21 21 21 21 22 22 22 22 22 22 23 24 24 23 23 24 24 24 23 23 23 23 23 24 25 25 25 26 26 27 27 26 26 26 25 25
18 18 19 20 20 21 21 22 22 22 22 22 22 22 22 22 21 22 22 22 23 23 23 23 23 23 23 23 23 23 24 25 26 26 26 26 26 26 26 27 26 25 25
20 19 19 20 21 21 21 22 22 22 22 22 21 21 21 21 21 21 21 22 22 21 22 22 22 22 22 22 23 23 24 24 24 25 26 26 26 27 27 27 26 26 25
20 20 20 20 20 20 21 21 21 22 22 22 21 19 20 20 21 21 22 21 21 20 20 21 21 21 21 22 23 23 24 24 24 25 25 25 26 26 27 26 25 25 25
21 22 22 21 21 20 20 20 21 21 21 21 20 20 20 21 21 21 21 21 21 20 20 20 21 21 22 22 22 23 24 24 25 25 24 25 25 26 25 25 25 25 25
23 23 23 23 22 22 22 22 22 22 21 21 21 21 21 21 22 22 22 21 21 21 21 21 21 21 22 22 22 23 23 23 24 24 24 24 25 25 25 24 24 25 26
24 24 24 24 24 23 23 23 23 22 22 22 22 22 21 21 22 22 22 21 21 21 21 22 22 22 22 23 23 23 24 24 24 24 24 24 24 25 24 24 24 25 25
25 24 25 25 25 24 24 24 23 23 23 23 23 22 22 22 22 23 23 22 22 21 21 21 22 22 23 23 23 24 24 25 24 24 24 24 23 23 23 23 24 24 24
25 24 25 25 24 24 24 24 23 24 24 24 24 23 23 23 23 23 24 24 24 23 22 22 22 22 23 23 23 24 24 24 23 23 23 23 23 23 23 23 24 24 23
Wind_Direction
278 278 279 279 277 275 277 277 277 277 276 277 279 280 282 282 281 280 280 277 277 276 275 275 277 278 279 279 278 277 278 277 275 278 278 278 278 277 278 276 273 273 273
276 277 277 278 277 275 274 275 276 276 275 276 276 277 281 281 280 281 280 278 278 277 273 272 275 277 278 279 279 279 279 278 276 275 277 277 276 277 278 277 277 277 276
276 276 274 276 277 275 273 274 276 275 274 275 275 276 279 280 280 281 280 281 279 278 274 273 276 277 278 279 280 281 280 277 276 276 277 278 279 279 278 278 278 279 278
274 275 275 276 276 276 274 276 276 275 273 272 272 274 276 277 279 280 278 277 278 276 276 277 278 279 279 279 278 279 280 279 279 280 280 280 281 281 282 282 282 282 281
275 274 275 277 277 275 275 275 276 276 274 272 272 273 274 274 275 276 277 276 276 276 277 279 280 281 280 278 277 277 278 279 279 281 283 284 284 284 284 286 286 284 283
273 273 274 275 276 274 275 275 275 274 273 273 274 273 273 273 274 276 276 275 275 276 278 281 282 282 281 278 276 278 280 280 279 279 280 283 283 284 285 286 287 286 286
274 273 273 273 273 276 279 277 274 273 272 273 274 273 272 273 274 275 275 276 276 275 277 279 281 283 283 281 278 278 279 280 279 279 279 282 283 285 286 287 289 290 289
272 272 272 272 272 274 276 275 272 271 271 273 275 274 272 273 274 275 275 276 276 275 277 279 280 283 283 281 278 278 279 279 280 280 280 281 282 284 286 287 288 289 288
275 272 271 271 272 274 274 276 275 274 276 275 276 276 275 276 275 275 276 275 275 276 279 280 281 282 281 280 279 280 279 280 281 281 281 281 283 284 286 287 288 288 287
277 274 272 274 274 274 275 276 276 275 275 275 275 276 277 277 275 274 274 275 275 276 278 280 281 280 280 281 280 279 279 280 280 280 280 282 283 285 287 287 286 287 287
274 274 274 274 273 273 274 275 275 274 274 276 276 276 277 277 276 274 275 277 276 277 278 279 280 279 280 282 282 280 279 279 280 281 282 283 284 286 287 286 286 286 286
269 271 272 272 272 273 274 274 273 273 274 276 278 277 277 278 278 276 276 276 276 277 277 278 279 278 280 282 283 281 279 279 280 282 283 284 284 286 287 286 286 286 287
268 271 273 274 275 274 273 273 273 274 274 275 276 278 280 281 281 279 277 277 276 275 276 277 278 279 280 281 283 283 282 282 283 285 285 285 285 285 286 287 287 286 286
269 270 271 274 278 278 274 275 276 276 275 276 277 279 281 282 281 281 279 277 277 275 276 278 278 278 279 281 281 283 284 285 286 287 287 287 286 286 286 286 287 286 286
270 269 269 273 277 279 279 280 279 281 279 278 279 281 282 283 283 282 280 279 277 276 277 276 276 277 278 279 281 282 283 285 287 287 287 286 286 287 287 286 287 288 287
271 272 271 272 274 277 279 281 282 284 283 283 282 283 283 284 285 284 283 279 276 275 276 276 276 277 279 280 282 283 284 285 286 286 287 286 287 288 287 287 288 289 289
272 272 270 272 275 276 280 283 283 282 283 285 285 284 284 284 285 285 283 280 277 276 276 277 277 279 281 281 284 285 286 287 287 288 289 289 289 289 288 288 288 289 289
271 272 272 274 276 277 279 281 282 282 282 283 285 284 283 285 286 285 284 281 280 278 277 278 278 279 281 282 284 286 287 288 288 288 289 289 289 288 288 288 289 289 289
272 273 274 276 277 278 279 281 281 282 283 283 285 285 284 286 287 286 286 284 282 280 279 278 279 280 282 283 284 285 287 288 289 289 290 290 289 288 288 288 288 288 288
272 274 277 279 280 282 283 283 282 282 282 281 282 282 282 284 285 286 288 287 283 281 280 280 280 281 283 285 286 287 288 288 289 290 291 290 289 290 289 287 287 286 287
272 274 277 280 283 285 286 286 285 283 282 282 283 281 281 283 284 286 286 286 285 283 282 281 280 282 284 287 288 288 289 289 289 290 289 288 290 290 289 286 285 286 287
273 273 275 278 280 283 285 286 286 286 284 284 284 284 284 284 284 284 285 286 285 283 282 282 282 283 283 286 287 288 289 289 290 290 290 290 291 290 288 285 285 286 287
272 273 275 277 277 280 282 284 286 286 285 285 284 283 284 283 283 284 286 287 285 283 281 281 283 285 287 287 288 288 289 289 289 290 290 291 292 291 289 287 287 288 289
271 272 274 276 277 277 281 284 284 285 285 285 284 283 284 284 284 284 283 283 284 282 280 280 283 284 285 286 287 288 289 289 288 287 287 290 292 292 291 290 290 290 289
270 271 273 276 276 277 281 282 282 282 284 285 285 283 284 284 285 284 282 282 283 282 280 281 283 284 286 286 286 288 291 291 289 287 286 289 292 293 291 289 290 289 290
270 271 274 277 277 279 282 282 282 281 282 283 283 284 283 284 284 282 281 282 283 283 283 282 282 282 284 286 287 288 289 289 289 288 288 288 290 291 292 291 291 290 290
Height
5804 5804 5803 5803 5803 5803 5803 5803 5803 5803 5802 5803 5803 5803 5802 5802 5802 5801 5801 5800 5800 5800 5799 5799 5799 5799 5799 5798 5798 5798 5798 5798 5798 5798 5798 5798 5797 5797 5797 5797 5797 5796 5796
5798 5798 5798 5798 5797 5797 5797 5797 5797 5797 5797 5797 5798 5798 5798 5797 5796 5796 5795 5794 5794 5793 5793 5794 5794 5794 5794 5793 5793 5793 5792 5792 5792 5793 5793 5792 5792 5791 5791 5791 5791 5790 5790
5793 5792 5792 5792 5792 5792 5792 5792 5792 5791 5791 5791 5792 5792 5792 5791 5791 5791 5790 5789 5788 5788 5788 5788 5788 5788 5788 5788 5788 5787 5787 5787 5787 5787 5787 5787 5786 5786 5785 5785 5785 5784 5784
5787 5787 5786 5786 5786 5786 5786 5786 5786 5785 5786 5786 5786 5786 5786 5786 5786 5786 5785 5784 5784 5783 5783 5783 5783 5782 5782 5782 5782 5782 5782 5782 5781 5781 5781 5781 5781 5780 5779 5779 5778 5777 5777
5781 5781 5781 5781 5781 5781 5780 5780 5780 5780 5780 5780 5780 5780 5780 5780 5780 5780 5780 5779 5779 5779 5778 5778 5777 5777 5776 5776 5776 5776 5776 5776 5776 5776 5776 5776 5775 5774 5774 5773 5772 5771 5770
5776 5776 5776 5776 5776 5775 5775 5775 5775 5775 5774 5774 5775 5775 5774 5774 5774 5774 5774 5774 5774 5773 5773 5773 5772 5771 5771 5770 5771 5771 5771 5770 5770 5770 5770 5770 5769 5768 5767 5766 5765 5764 5763
5770 5770 5770 5771 5771 5770 5770 5769 5769 5769 5769 5769 5769 5769 5769 5768 5768 5768 5768 5768 5768 5768 5768 5767 5766 5766 5765 5764 5764 5764 5765 5764 5764 5764 5764 5764 5763 5762 5761 5760 5758 5757 5756
5765 5765 5765 5765 5765 5765 5765 5764 5764 5764 5764 5764 5763 5763 5763 5763 5762 5762 5762 5762 5762 5762 5761 5761 5760 5760 5759 5758 5758 5758 5758 5758 5758 5758 5758 5757 5756 5755 5754 5753 5751 5750 5749
5759 5759 5759 5759 5760 5759 5759 5759 5758 5758 5758 5758 5757 5757 5757 5757 5757 5756 5756 5756 5756 5756 5755 5755 5754 5754 5753 5752 5752 5752 5752 5752 5751 5751 5751 5750 5749 5748 5747 5745 5744 5743 5741
5754 5753 5754 5754 5754 5754 5754 5753 5753 5752 5752 5752 5752 5752 5751 5751 5750 5750 5750 5750 5750 5750 5749 5748 5748 5747 5747 5746 5746 5746 5745 5745 5744 5744 5743 5743 5742 5741 5739 5738 5736 5735 5734
5748 5748 5748 5748 5748 5748 5748 5747 5747 5747 5746 5746 5746 5746 5745 5745 5744 5744 5744 5744 5743 5743 5742 5742 5741 5741 5740 5739 5739 5738 5738 5738 5737 5736 5736 5735 5734 5733 5731 5730 5728 5727 5726
5742 5742 5742 5742 5742 5742 5741 5741 5741 5741 5741 5740 5740 5740 5739 5739 5738 5738 5737 5737 5736 5736 5736 5735 5735 5734 5734 5733 5732 5731 5731 5730 5730 5729 5728 5727 5726 5725 5723 5722 5721 5719 5718
5736 5736 5736 5736 5736 5736 5735 5735 5735 5734 5734 5734 5734 5734 5733 5733 5732 5731 5731 5730 5730 5730 5729 5729 5728 5727 5727 5726 5726 5725 5724 5723 5722 5722 5721 5720 5718 5717 5716 5714 5713 5712 5711
5730 5731 5730 5730 5730 5730 5729 5729 5729 5729 5728 5728 5728 5728 5727 5726 5726 5725 5724 5724 5723 5723 5722 5722 5721 5720 5720 5719 5718 5718 5717 5716 5715 5715 5713 5712 5711 5709 5708 5707 5705 5704 5703
5724 5725 5725 5725 5725 5724 5724 5723 5723 5723 5722 5722 5721 5721 5721 5720 5719 5718 5717 5716 5716 5715 5714 5714 5714 5713 5713 5712 5711 5711 5710 5709 5708 5707 5705 5704 5703 5702 5701 5699 5698 5696 5695
5719 5719 5719 5719 5719 5719 5718 5718 5718 5717 5716 5716 5715 5714 5713 5713 5712 5711 5710 5709 5708 5707 5707 5707 5706 5706 5705 5704 5704 5703 5702 5701 5700 5699 5697 5696 5695 5694 5693 5691 5690 5688 5687
5713 5713 5713 5713 5713 5713 5713 5712 5712 5712 5711 5710 5709 5708 5707 5706 5705 5704 5702 5701 5701 5700 5700 5699 5699 5698 5698 5697 5696 5695 5695 5694 5692 5691 5689 5688 5687 5686 5685 5683 5682 5681 5679
5707 5707 5707 5707 5707 5707 5706 5706 5705 5705 5705 5704 5703 5702 5700 5699 5698 5696 5695 5694 5693 5693 5692 5692 5692 5691 5690 5690 5689 5688 5687 5686 5684 5683 5682 5681 5679 5678 5677 5676 5674 5673 5671
5702 5702 5702 5701 5701 5700 5700 5699 5698 5698 5697 5697 5696 5695 5694 5692 5690 5689 5688 5687 5686 5685 5685 5685 5684 5684 5683 5683 5682 5681 5679 5678 5677 5676 5674 5673 5672 5670 5669 5668 5666 5665 5664
5696 5696 5695 5695 5694 5694 5693 5692 5691 5691 5690 5690 5689 5688 5687 5685 5684 5683 5681 5680 5679 5678 5678 5678 5678 5677 5676 5675 5674 5673 5672 5671 5669 5668 5667 5665 5664 5662 5661 5659 5658 5657 5656
5689 5689 5689 5688 5688 5687 5686 5685 5684 5684 5683 5683 5682 5681 5680 5679 5678 5676 5675 5674 5673 5672 5672 5671 5671 5670 5669 5668 5667 5666 5665 5664 5662 5661 5659 5658 5656 5654 5653 5651 5650 5649 5648
5683 5683 5683 5682 5681 5681 5680 5679 5678 5677 5676 5676 5675 5674 5673 5672 5671 5670 5669 5668 5667 5666 5666 5665 5664 5663 5662 5661 5660 5659 5658 5656 5655 5653 5652 5650 5648 5646 5645 5643 5642 5641 5640
5676 5676 5675 5675 5675 5674 5674 5673 5672 5671 5670 5669 5668 5667 5666 5665 5665 5664 5663 5662 5661 5660 5659 5658 5657 5656 5655 5654 5653 5652 5651 5649 5648 5646 5644 5643 5641 5639 5637 5636 5635 5633 5632
5668 5668 5668 5668 5667 5667 5666 5666 5665 5664 5663 5662 5662 5661 5660 5659 5658 5657 5656 5655 5654 5653 5652 5652 5651 5649 5649 5647 5646 5645 5643 5642 5640 5639 5637 5635 5633 5632 5630 5629 5627 5626 5624
5660 5660 5660 5660 5660 5659 5659 5658 5657 5657 5656 5655 5654 5653 5653 5652 5651 5650 5649 5648 5648 5646 5645 5644 5644 5642 5641 5640 5639 5638 5636 5635 5633 5631 5630 5628 5626 5625 5623 5622 5620 5618 5617
5652 5652 5652 5652 5652 5652 5651 5651 5650 5649 5649 5648 5647 5646 5645 5644 5644 5643 5642 5641 5640 5639 5638 5637 5636 5635 5634 5633 5632 5631 5629 5628 5626 5624 5623 5622 5620 5618 5616 5614 5613 5611 5609